This is the latest recevied weather packets stored in our database for station/object DM4XI-13. If no packets are shown the sender has not sent any weather packets the latest 10 day(s).
| Time | Temp. | Humidity | Pressure | Rain* | Wind** | Luminosity | Snow |
|---|---|---|---|---|---|---|---|
| 1778119961 | 9.44° C | 94% | 1007.4 hPa | 0 mm | 0.89 m/s, 186° | 0 W/m² | - |
| 1778119900 | 9.44° C | 94% | 1007.4 hPa | 0 mm | 0.45 m/s, 194° | 0 W/m² | - |
| 1778119839 | 9.44° C | 93% | 1007.3 hPa | 0 mm | 0.45 m/s, 182° | 0 W/m² | - |
| 1778119778 | 10° C | 93% | 1007.3 hPa | 0 mm | 0.45 m/s, 193° | 0 W/m² | - |
| 1778119717 | 10° C | 93% | 1007.4 hPa | 0 mm | 0.45 m/s, 183° | 0 W/m² | - |
| 1778119656 | 10° C | 93% | 1007.5 hPa | 0 mm | 0 m/s | 0 W/m² | - |
| 1778119596 | 10° C | 93% | 1007.2 hPa | 0 mm | 0.89 m/s, 189° | 0 W/m² | - |
| 1778119535 | 10° C | 92% | 1007.3 hPa | 0 mm | 0.45 m/s, 214° | 0 W/m² | - |
| 1778119473 | 10° C | 92% | 1007.4 hPa | 0 mm | 0 m/s | 0 W/m² | - |
| 1778119412 | 10° C | 92% | 1007.4 hPa | 0 mm | 0.89 m/s, 268° | 0 W/m² | - |
| 1778119351 | 10° C | 92% | 1007.2 hPa | 0 mm | 0 m/s | 0 W/m² | - |
| 1778119291 | 10° C | 92% | 1007.2 hPa | 0 mm | 0 m/s | 0 W/m² | - |
| 1778119168 | 10° C | 92% | 1007.3 hPa | 0 mm | 0.89 m/s, 249° | 0 W/m² | - |
| 1778119107 | 10° C | 92% | 1007.3 hPa | 0 mm | 0.45 m/s, 183° | 0 W/m² | - |
| 1778119046 | 10° C | 92% | 1007.3 hPa | 0 mm | 1.79 m/s, 251° | 0 W/m² | - |
| 1778118985 | 10° C | 92% | 1007.2 hPa | 0 mm | 0.89 m/s, 201° | 0 W/m² | - |
| 1778118924 | 10° C | 92% | 1007.3 hPa | 0 mm | 1.34 m/s, 222° | 0 W/m² | - |
| 1778118863 | 10° C | 92% | 1007.2 hPa | 0 mm | 0.45 m/s, 228° | 0 W/m² | - |
| 1778118802 | 10° C | 92% | 1007.2 hPa | 0 mm | 1.34 m/s, 308° | 0 W/m² | - |
| 1778118741 | 10° C | 92% | 1007.2 hPa | 0 mm | 2.24 m/s, 264° | 0 W/m² | - |
| 1778118680 | 10° C | 92% | 1007.1 hPa | 0 mm | 0.45 m/s, 252° | 0 W/m² | - |
| 1778118619 | 10° C | 93% | 1007.2 hPa | 0 mm | 1.34 m/s, 277° | 0 W/m² | - |
| 1778118558 | 10° C | 93% | 1007.2 hPa | 0 mm | 0.89 m/s, 187° | 0 W/m² | - |
| 1778118497 | 10° C | 92% | 1007.1 hPa | 0 mm | 0.89 m/s, 254° | 0 W/m² | - |
| 1778118436 | 10° C | 92% | 1007.1 hPa | 0 mm | 0.45 m/s, 230° | 0 W/m² | - |
* Rain latest hour (hover to see other rain measurements)
** Current wind speed in m/s (hover to see current wind gust speed)